Regional Weather Roundup
Issued by NWS

Home | Current Version | Previous Version | Text Only | Print | Product List | Glossary On
Versions: 1 2 3 4 5 6 7 8 9 10 11 12 13 14 15 16 17 18 19 20 21 22 23 24 25 26 27 28 29 30 31 32 33 34 35 36 37 38 39 40 41 42 43 44 45 46 47 48 49 50
000
ASUS44 KFWD 061210
RWRTX
NORTH TEXAS HOURLY WEATHER ROUNDUP
NATIONAL WEATHER SERVICE FORT WORTH TX
600 AM CST FRI MAR 06 2015

NOTE: "FAIR" INDICATES FEW OR NO CLOUDS BELOW 12,000 FEET WITH NO
SIGNIFICANT WEATHER AND/OR OBSTRUCTIONS TO VISIBILITY.

TXZ118-119-061300-
DALLAS/FORT WORTH METROPLEX

CITY           SKY/WX    TMP DP  RH WIND       PRES   REMARKS
DFW AIRPORT    CLEAR     25  20  81 S5        30.57R WCI  19
6HR MIN TEMP:  23; 6HR MAX TEMP:  30;

DALLAS LOVE    CLEAR     25  21  85 CALM      30.58S
6HR MIN TEMP:  25; 6HR MAX TEMP:  32;

FTW MEACHAM    CLEAR     27  20  75 CALM      30.56S
6HR MIN TEMP:  27; 6HR MAX TEMP:  32;

DAL-EXECUTIVE  CLEAR     25  19  78 SW5       30.56R WCI  19
6HR MIN TEMP:  23; 6HR MAX TEMP:  28;

FTW-ALLIANCE   CLEAR     24  20  84 CALM      30.56R
6HR MIN TEMP:  23; 6HR MAX TEMP:  29;

FTW-SPINKS     CLEAR     22  20  93 CALM      30.59R
6HR MIN TEMP:  22; 6HR MAX TEMP:  26;

ARLINGTON      CLEAR     22  17  81 CALM      30.58R
6HR MIN TEMP:  22; 6HR MAX TEMP:  28;

ADDISON        CLEAR     28  23  80 CALM      30.58S
LANCASTER      CLEAR     24  20  87 CALM      30.60R
6HR MIN TEMP:  24; 6HR MAX TEMP:  27;

$$

TXZ091>094-102>105-117-120-121-131>134-061300-
NORTH CENTRAL TEXAS

CITY           SKY/WX    TMP DP  RH WIND       PRES   REMARKS
SHRMAN/DENISON CLEAR     27  24  88 S3        30.56S
6HR MIN TEMP:  27; 6HR MAX TEMP:  30;

GAINESVILLE    CLEAR     26  21  83 CALM      30.57S
6HR MIN TEMP:  24; 6HR MAX TEMP:  30;

BOWIE          CLEAR     23  21  93 CALM      30.53S
6HR MIN TEMP:  23; 6HR MAX TEMP:  28;

BRIDGEPORT     CLEAR     24  22  93 CALM      30.58R
6HR MIN TEMP:  23; 6HR MAX TEMP:  31;

DECATUR        CLEAR     28  19  68 SW6       30.54S WCI  22
6HR MIN TEMP:  28; 6HR MAX TEMP:  32;

DENTON         CLEAR     24  21  88 CALM      30.57R
6HR MIN TEMP:  24; 6HR MAX TEMP:  29;

MCKINNEY       CLEAR     22  20  92 CALM      30.58R
6HR MIN TEMP:  21; 6HR MAX TEMP:  26;

GREENVILLE     CLEAR     23  23 100 CALM      30.59R
TERRELL        CLEAR     25  21  85 CALM      30.59R
6HR MIN TEMP:  24; 6HR MAX TEMP:  30;

WAXAHACHIE     CLEAR     26  22  85 CALM      30.58S
6HR MIN TEMP:  23; 6HR MAX TEMP:  28;

CLEBURNE       CLEAR     27  18  69 MISG      30.58R
GRANBURY       CLEAR     23  20  89 CALM      30.59R
6HR MIN TEMP:  22; 6HR MAX TEMP:  26;

$$

TXZ083>090-098>101-113>116-127>130-139>142-154-155-061300-
WESTERN NORTH TEXAS

CITY           SKY/WX    TMP DP  RH WIND       PRES   REMARKS
WICHITA FALLS  CLEAR     23  18  81 S9        30.51R WCI  13
6HR MIN TEMP:  23; 6HR MAX TEMP:  27;

WF-KICKAPOO    CLEAR     26  22  86 S3        30.54R
6HR MIN TEMP:  26; 6HR MAX TEMP:  31;

VERNON         CLEAR     25  17  73 S7        30.50R WCI  17
6HR MIN TEMP:  12; 6HR MAX TEMP:  57;

ABILENE        CLEAR     27  19  72 S9        30.50R WCI  18
6HR MIN TEMP:  27; 6HR MAX TEMP:  29;

ABILENE-DYESS  CLEAR     25  18  76 S7        30.49R WCI  17
6HR MIN TEMP:  23; 6HR MAX TEMP:  28;

BRECKENRIDGE   CLEAR     28  19  71 S3        30.53R
6HR MIN TEMP:  28; 6HR MAX TEMP:  31;

GRAHAM         CLEAR     21  20  96 CALM      30.53R
6HR MIN TEMP:  21; 6HR MAX TEMP:  28;

MINERAL WELLS  CLEAR     24  20  84 SE3       30.55R
6HR MIN TEMP:  24; 6HR MAX TEMP:  29;

STEPHENVILLE   CLEAR     24  20  87 CALM      30.57R
6HR MIN TEMP:  22; 6HR MAX TEMP:  27;

COMANCHE       CLEAR     25  19  78 SW7       30.54R WCI  17
6HR MIN TEMP:  25; 6HR MAX TEMP:  28;

BROWNWOOD      CLEAR     21  19  93 CALM      30.55R
COLEMAN        PTCLDY    23  21  92 CALM      30.52S
6HR MIN TEMP:  23; 6HR MAX TEMP:  30;

BRADY          CLEAR     23  19  86 CALM      30.50S
$$

TXZ143>147-156>162-174-175-061300-
CENTRAL TEXAS

CITY           SKY/WX    TMP DP  RH WIND       PRES   REMARKS
WACO           CLEAR     21  18  88 CALM      30.59R
6HR MIN TEMP:  20; 6HR MAX TEMP:  29;

WACO-MCGREGOR  CLEAR     25  18  74 CALM      30.59R
6HR MIN TEMP:  25; 6HR MAX TEMP:  28;

HILLSBORO      CLEAR     24  19  83 CALM      30.58R
6HR MIN TEMP:  24; 6HR MAX TEMP:  31;

CORSICANA      CLEAR     27  22  81 NE3       30.59R
6HR MIN TEMP:  26; 6HR MAX TEMP:  30;

MEXIA          CLEAR     26  21  82 MISG      30.58R
6HR MIN TEMP:  24; 6HR MAX TEMP:  30;

HEARNE         CLEAR     23  22  95 CALM      30.61S
6HR MIN TEMP:  22; 6HR MAX TEMP:  28;

CAMERON        PTCLDY    27  22  83 NW3       30.60R
6HR MIN TEMP:  26; 6HR MAX TEMP:  29;

TEMPLE         PTCLDY    23  16  74 CALM      30.56S
6HR MIN TEMP:  19; 6HR MAX TEMP:  27;

KILLEEN        PTCLDY    25  18  74 N3        30.55R
6HR MIN TEMP:  24; 6HR MAX TEMP:  29;

KILLEEN-SKYLRK PTCLDY    25  16  68 CALM      30.55R
6HR MIN TEMP:  25; 6HR MAX TEMP:  30;

FORT HOOD      PTCLDY    25  19  79 W3        30.55R
6HR MIN TEMP:  24; 6HR MAX TEMP:  26;

GATESVILLE     PTCLDY    23  19  86 MISG      30.59R
HAMILTON       CLEAR     27  17  66 S3        30.55R
6HR MIN TEMP:  25; 6HR MAX TEMP:  31;

LAMPASAS       CLEAR     22  19  91 CALM      30.54S
6HR MIN TEMP:  20; 6HR MAX TEMP:  30;

$$

TXZ095>097-106>112-122>126-135>138-148>153-164>167-061300-
EAST TEXAS

CITY           SKY/WX    TMP DP  RH WIND       PRES   REMARKS
PARIS          CLEAR     27  19  74 SW3       30.58S
6HR MIN TEMP:  25; 6HR MAX TEMP:  28;

SULPHUR SPRNGS CLEAR     27  25  93 CALM      30.61R
MOUNT PLEASANT CLEAR     24  24  98 CALM      30.61R
6HR MIN TEMP:  24; 6HR MAX TEMP:  29;

GILMER         CLEAR     23  22  96 CALM      30.60R
6HR MIN TEMP:  23; 6HR MAX TEMP:  28;

MINEOLA        CLEAR     25  23  93 CALM      30.60R
TYLER          CLEAR     25  20  81 CALM      30.58R
6HR MIN TEMP:  24; 6HR MAX TEMP:  30;

LONGVIEW       CLEAR     26  21  81 CALM      30.59R
6HR MIN TEMP:  25; 6HR MAX TEMP:  30;

MARSHALL       CLEAR     26  24  92 CALM      30.62R
6HR MIN TEMP:  19; 6HR MAX TEMP:  28;

ATHENS         CLEAR     23  21  93 CALM      30.59R
PALESTINE      CLEAR     25  23  93 CALM      30.60S
JACKSONVILLE   CLEAR     30  22  72 N3        30.59R
HENDERSON      CLEAR     23  22  97 CALM      30.60R
6HR MIN TEMP:  23; 6HR MAX TEMP:  27;

NACOGDOCHES    CLEAR     21  18  86 CALM      30.59R
6HR MIN TEMP:  21; 6HR MAX TEMP:  30;

LUFKIN         PTCLDY    27  22  81 CALM      30.59R
6HR MIN TEMP:  27; 6HR MAX TEMP:  33;

$$

SUPPLEMENTAL OBSERVATIONS (CENTRAL)

CITY           SKY/WX    TMP DP  RH WIND       PRES   REMARKS
$$

SUPPLEMENTAL OBSERVATIONS (WEST)

CITY           SKY/WX    TMP DP  RH WIND       PRES   REMARKS
$$

SUPPLEMENTAL OBSERVATIONS (EAST)

CITY           SKY/WX    TMP DP  RH WIND       PRES   REMARKS
$$

SUPPLEMENTAL OBSERVATIONS ARE A COLLECTION OF AUTOMATED INSTRUMENTS
THAT ARE MAINTAINED BY A VARIETY OF FEDERAL AND STATE AGENCIES.
CERTAIN ELEMENTS...SUCH AS HUMIDITY VALUES AND SUSTAINED WIND
SPEEDS...MAY BE APPROXIMATED.




USA.gov is the U.S. government's official web portal to all federal, state and local government web resources and services.